{"data":{"norad_id":40332,"intl_designator":"2014-078A","name":"GSAT-16","alt_names":[],"object_type":"PAYLOAD","status":"ACTIVE","operator":null,"country":"IND","launch_date":"2014-12-06","launch_site_code":"FRGUI","launch_vehicle":null,"mission":null,"orbit_class":"UNKNOWN","rcs_meters":63.2456,"size_class":null,"mass_kg":null,"dimensions":null,"purposes":["comms"],"wikipedia_slug":null,"has_3d_model":false,"image_url":null,"decayed_at":null,"tle_current":{"epoch":"2026-05-25T04:00:15.763104Z","epoch_age_seconds":56633,"freshness":"FRESH","line1":"1 40332U 14078A   26145.16684911  .00000083  00000+0  00000+0 0  9995","line2":"2 40332   0.0480  98.3753 0007729 340.0619 279.4714  1.00270744 41878","mean_motion":1.00270744,"eccentricity":0.0007729,"inclination_deg":0.048,"raan_deg":98.3753,"arg_perigee_deg":340.0619,"mean_anomaly_deg":279.4714,"bstar":0,"rev_number":4187,"period_min":1436.1118134318,"perigee_km":35754.297446915,"apogee_km":35819.476140695,"semimajor_km":42165.023793805,"source":"CELESTRAK","updated_at":"2026-05-25T13:38:13.953252Z"}}}